Regional Weather Roundup
Issued by NWS Kansas City/Pleasant Hill, MO

Home | Current Version | Previous Version | Text Only | Print | Product List | Glossary On
Versions: 1 2 3 4 5 6 7 8 9 10 11 12 13 14 15 16 17 18 19 20 21 22 23 24 25 26 27 28 29 30 31 32 33 34 35 36 37 38 39 40 41 42 43 44 45 46 47 48 49 50
000
ASUS43 KEAX 110210
RWREAX

WEATHER ROUNDUP FOR EASTERN KANSAS AND NORTHWEST MISSOURI
NATIONAL WEATHER SERVICE KANSAS CITY/PLEASANT HILL MO
800 PM CST SAT DEC 10 2016

KSZ040-057-103>105-MOZ028-029-037-043-110300-
...KANSAS CITY METROPOLITAN AREA...

CITY           SKY/WX    TMP DP  RH WIND       PRES   REMARKS
K.C. INTL      CLOUDY    36  18  48 SE10      30.02F WCI  28
K.C. DOWNTOWN  CLOUDY    39  19  44 SE7       30.04F WCI  34
LEES SUMMIT    CLOUDY    37  20  50 SE9       30.04F WCI  30
OLATHE - IXD   CLOUDY    37  21  52 SE10      30.03F WCI  30
OLATHE - OJC   CLOUDY    36  21  54 S10       30.03F WCI  28
LAWRENCE       CLOUDY    35  22  58 E10       30.02F WCI  27

$$

MOZ001>008-011>017-020>025-030>033-038>040-044>046-053-054-110300-
...NORTHERN AND CENTRAL MISSOURI...

CITY           SKY/WX    TMP DP  RH WIND       PRES   REMARKS
ST. JOSEPH     CLOUDY    34  20  56 SE8       30.03F WCI  27
MOSBY          CLOUDY    36  19  51 SE3       30.06F
WARRENSBURG    CLOUDY    36  21  55 SE10      30.07F WCI  28
WHITEMAN AFB   CLOUDY    37  19  48 S13       30.05F WCI  29
CLINTON        CLOUDY    37  19  48 S15G21    30.08F WCI  28
SEDALIA        CLOUDY    38  18  44 SE13      30.09F WCI  30
WARSAW         NOT AVBL
CHILLICOTHE      N/A     33  18  53 SE8       30.10F WCI  26
KIRKSVILLE     CLOUDY    31  18  58 SE13      30.14F WCI  21

$$

MOZ041-047>049-056>058-063>065-088>090-097-110300-
...EASTERN AND SOUTHERN MISSOURI...

CITY           SKY/WX    TMP DP  RH WIND       PRES   REMARKS
ST. LOUIS INTL CLOUDY    36  18  48 SE14      30.26F WCI  27
SPIRIT OF STL  CLOUDY    35  19  52 SE8       30.26F WCI  29
COLUMBIA       CLOUDY    35  16  45 SE15      30.15F WCI  25
JEFFERSON CITY CLOUDY    35  17  47 SE10      30.19F WCI  27
ROLLA          CLOUDY    33  15  47 S15G21    30.17F WCI  23
OSAGE BEACH    CLOUDY    35  16  45 SE12G18   30.16F WCI  27
SPRINGFIELD    CLOUDY    36  18  48 SE23G29   30.11F WCI  24
BRANSON        CLOUDY    36  18  48 SE15      30.18F WCI  26
JOPLIN         CLOUDY    43  17  35 S20G25    30.07F WCI  34
WEST PLAINS    CLOUDY    32  20  61 S9        30.26F WCI  24

$$

IAZ060-094-KSZ022-034>040-054-083-096-NEZ052-066-093-110300-
...KANSAS...SOUTHEAST NEBRASKA AND IOWA...

CITY           SKY/WX    TMP DP  RH WIND       PRES   REMARKS
TOPEKA         CLOUDY    35  21  56 E7        30.00F WCI  29
MANHATTAN      CLOUDY    36  21  54 SE5       29.95F WCI  32
EMPORIA        CLOUDY    36  21  54 S14       29.95F WCI  27
CHANUTE        CLOUDY    41  19  41 S14G21    30.04F WCI  33
WICHITA        CLOUDY    37  24  59 S16       29.94F WCI  28
OMAHA          CLOUDY    32  18  56 SE13      30.00F WCI  22
LINCOLN        CLOUDY    32  21  64 SE10      29.96F WCI  24
FALLS CITY     CLOUDY    33  22  63 SE10      29.99F WCI  25
LAMONI         CLOUDY    30  16  56 SE10      30.05F WCI  21
DES MOINES     CLOUDY    26  18  71 SE10      30.10F WCI  16

$$




USA.gov is the U.S. government's official web portal to all federal, state and local government web resources and services.